Location: Deer Path Park
(40.5570°N, 74.8450°W)
Time: 21:30:47
(UTC-04:00)

Iridium 49 - Visible Passes

Search period start: 23 August 2016 00:00
Search period end: 02 September 2016 00:00
Orbit: 776 x 779 km, 86.4° (Epoch: 23 August)

Date Brightness Start Highest point End Pass type
(mag) Time Alt. Az. Time Alt. Az. Time Alt. Az.
23 Aug 6.3 04:05:02 27° SSE 04:07:50 65° E 04:13:01 10° N visible
23 Aug 7.7 05:46:17 10° WSW 05:49:02 14° WNW 05:51:50 10° NW visible
24 Aug 7.4 03:32:06 23° SE 03:34:28 35° E 03:39:09 10° NNE visible
24 Aug 7.1 05:12:36 18° WSW 05:15:12 26° WNW 05:19:33 10° NNW visible
25 Aug 8.2 02:59:07 15° ESE 03:01:11 19° E 03:04:49 10° NE visible
25 Aug 6.3 04:39:37 33° SW 04:41:30 47° W 04:46:32 10° N visible
26 Aug 8.8 02:27:51 10° ENE 02:28:03 10° ENE 02:28:16 10° ENE visible
26 Aug 5.9 04:06:38 53° S 04:07:55 87° W 04:13:10 10° N visible
27 Aug 6.7 03:33:36 45° ESE 03:34:28 50° E 03:39:30 10° NNE visible
27 Aug 7.5 05:14:07 17° W 05:15:29 18° WNW 05:19:02 10° NNW visible
28 Aug 7.6 03:00:34 27° E 03:01:08 27° E 03:05:29 10° NNE visible
28 Aug 6.7 04:41:04 32° W 04:41:42 33° W 04:46:23 10° NNW visible
29 Aug 8.4 02:27:31 15° E 02:27:55 15° ENE 02:30:49 10° NE visible
29 Aug 6.0 04:08:00 60° W 04:08:02 60° W 04:13:13 10° N visible
30 Aug 6.2 03:34:55 70° NE 03:34:55 70° NE 03:39:44 10° N visible
30 Aug 7.9 05:15:25 12° WNW 05:15:49 13° WNW 05:18:00 10° NW visible
31 Aug 7.3 03:01:50 37° ENE 03:01:50 37° ENE 03:05:56 10° NNE visible
31 Aug 7.3 04:42:19 23° WNW 04:42:19 23° WNW 04:46:03 10° NNW visible
01 Sep 8.1 02:28:42 21° ENE 02:28:42 21° ENE 02:31:44 10° NNE visible
01 Sep 6.8 04:09:12 37° NW 04:09:12 37° NW 04:13:09 10° NNW visible
